Previsão horária em Abay (Tyulkubasskiy rayon)

Hoje, 18 Abril, Domingo

Tempo Temperatura Precipitação Vento Pressão Humidade
00:00 +14°C° 0 mm 2 m/s 707 mmHg 54%
01:00 +13°C° 0 mm 2 m/s 707 mmHg 54%
02:00 +13°C° 0 mm 2 m/s 707 mmHg 54%
03:00 +13°C° 0 mm 2 m/s 707 mmHg 53%
04:00 +13°C° 0 mm 2 m/s 707 mmHg 52%
05:00 +13°C° 0 mm 1 m/s 707 mmHg 51%
06:00 +14°C° 0 mm 1 m/s 708 mmHg 51%
07:00 +16°C° 0 mm 1 m/s 708 mmHg 50%
08:00 +16°C° 0 mm 0 m/s 709 mmHg 49%
09:00 +19°C° 0 mm 1 m/s 709 mmHg 46%
10:00 +19°C° 0 mm 2 m/s 709 mmHg 43%
11:00 +20°C° 0 mm 3 m/s 710 mmHg 40%
12:00 +20°C° 0 mm 3 m/s 710 mmHg 39%
13:00 +20°C° 0 mm 4 m/s 710 mmHg 38%
14:00 +20°C° 0 mm 5 m/s 710 mmHg 37%
15:00 +20°C° 0 mm 4 m/s 710 mmHg 39%
16:00 +20°C° 0 mm 4 m/s 710 mmHg 41%
17:00 +20°C° 0 mm 3 m/s 709 mmHg 43%
18:00 +18°C° 0 mm 3 m/s 709 mmHg 49%
19:00 +16°C° 0 mm 3 m/s 709 mmHg 54%
20:00 +13°C° 0 mm 3 m/s 709 mmHg 59%
21:00 +13°C° 0 mm 3 m/s 709 mmHg 56%
22:00 +13°C° 0 mm 2 m/s 709 mmHg 54%
23:00 +13°C° 0 mm 2 m/s 708 mmHg 51%

Amanhã, 19 Abril, Segunda-feira

Tempo Temperatura Precipitação Vento Pressão Humidade
00:00 +13°C° 0 mm 2 m/s 708 mmHg 50%
01:00 +13°C° 0 mm 2 m/s 708 mmHg 48%
02:00 +13°C° 0 mm 2 m/s 708 mmHg 47%
03:00 +13°C° 0 mm 2 m/s 708 mmHg 47%
04:00 +13°C° 0 mm 2 m/s 708 mmHg 47%
05:00 +13°C° 0 mm 2 m/s 708 mmHg 47%
06:00 +14°C° 0 mm 1 m/s 708 mmHg 47%
07:00 +15°C° 0 mm 1 m/s 708 mmHg 48%
08:00 +16°C° 0 mm 1 m/s 708 mmHg 49%
09:00 +19°C° 0 mm 1 m/s 708 mmHg 45%
10:00 +20°C° 0 mm 1 m/s 708 mmHg 41%
11:00 +20°C° 0 mm 2 m/s 708 mmHg 37%
12:00 +21°C° 0 mm 2 m/s 707 mmHg 35%
13:00 +21°C° 0 mm 3 m/s 707 mmHg 33%
14:00 +22°C° 0 mm 3 m/s 707 mmHg 30%
15:00 +21°C° 0 mm 3 m/s 707 mmHg 32%
16:00 +21°C° 0 mm 2 m/s 706 mmHg 34%
17:00 +21°C° 0 mm 2 m/s 706 mmHg 36%
18:00 +19°C° 0 mm 2 m/s 706 mmHg 40%
19:00 +17°C° 0 mm 2 m/s 706 mmHg 44%
20:00 +15°C° 0 mm 2 m/s 705 mmHg 47%
21:00 +15°C° 0 mm 2 m/s 705 mmHg 48%
22:00 +15°C° 0 mm 2 m/s 705 mmHg 49%
23:00 +15°C° 0 mm 2 m/s 704 mmHg 50%

Depois de amanhã, 20 Abril, Terça-feira

Tempo Temperatura Precipitação Vento Pressão Humidade
00:00 +15°C° 0 mm 2 m/s 704 mmHg 50%
01:00 +14°C° 0 mm 2 m/s 704 mmHg 50%
02:00 +14°C° 0 mm 2 m/s 703 mmHg 50%
03:00 +14°C° 0 mm 2 m/s 703 mmHg 49%
04:00 +14°C° 0 mm 2 m/s 703 mmHg 48%
05:00 +14°C° 0 mm 2 m/s 703 mmHg 48%
06:00 +15°C° 0 mm 2 m/s 703 mmHg 48%
07:00 +16°C° 0 mm 1 m/s 703 mmHg 47%
08:00 +19°C° 0 mm 1 m/s 704 mmHg 47%
09:00 +18°C° 0 mm 2 m/s 704 mmHg 47%
10:00 +18°C° 0 mm 3 m/s 704 mmHg 47%
11:00 +19°C° 0 mm 5 m/s 704 mmHg 46%
12:00 +18°C° 0.1 mm 4 m/s 704 mmHg 51%
13:00 +17°C° 0.1 mm 3 m/s 704 mmHg 56%
14:00 +16°C° 0.1 mm 3 m/s 704 mmHg 61%
15:00 +14°C° 0.6 mm 3 m/s 704 mmHg 71%
16:00 +14°C° 0.6 mm 2 m/s 704 mmHg 81%
17:00 +12°C° 0.6 mm 2 m/s 704 mmHg 90%
18:00 +12°C° 0.7 mm 2 m/s 704 mmHg 90%
19:00 +12°C° 0.7 mm 2 m/s 704 mmHg 90%
20:00 +12°C° 0.7 mm 2 m/s 704 mmHg 90%
21:00 +12°C° 0.1 mm 2 m/s 704 mmHg 88%
22:00 +12°C° 0.1 mm 2 m/s 703 mmHg 85%
23:00 +13°C° 0.1 mm 1 m/s 703 mmHg 83%

21 Abril, Quarta-feira

Tempo Temperatura Precipitação Vento Pressão Humidade
00:00 +12°C° 0.1 mm 1 m/s 703 mmHg 82%
01:00 +12°C° 0.1 mm 1 m/s 702 mmHg 82%
02:00 +12°C° 0.1 mm 1 m/s 702 mmHg 82%
03:00 +11°C° 2.3 mm 1 m/s 702 mmHg 86%
04:00 +10°C° 2.3 mm 2 m/s 702 mmHg 91%
05:00 +10°C° 2.3 mm 2 m/s 702 mmHg 95%
06:00 +10°C° 1.2 mm 2 m/s 703 mmHg 95%
07:00 +10°C° 1.2 mm 2 m/s 703 mmHg 95%
08:00 +10°C° 1.2 mm 2 m/s 703 mmHg 95%
09:00 +10°C° 2.6 mm 2 m/s 703 mmHg 94%
10:00 +9°C° 2.6 mm 2 m/s 704 mmHg 93%
11:00 +9°C° 2.6 mm 2 m/s 704 mmHg 92%
12:00 +9°C° 1.3 mm 2 m/s 704 mmHg 91%
13:00 +9°C° 1.3 mm 2 m/s 705 mmHg 91%
14:00 +9°C° 1.3 mm 2 m/s 705 mmHg 90%
15:00 +8°C° 0.9 mm 2 m/s 705 mmHg 90%
16:00 +8°C° 0.9 mm 3 m/s 706 mmHg 90%
17:00 +7°C° 0.9 mm 3 m/s 707 mmHg 91%
18:00 +5°C° 0.2 mm 3 m/s 707 mmHg 92%
19:00 +4°C° 0.2 mm 4 m/s 708 mmHg 93%
20:00 +3°C° 0.2 mm 4 m/s 709 mmHg 94%
21:00 +1°C° 0 mm 4 m/s 709 mmHg 94%
22:00 +1°C° 0 mm 4 m/s 710 mmHg 94%
23:00 +1°C° 0 mm 4 m/s 710 mmHg 94%

22 Abril, Quinta-feira

Tempo Temperatura Precipitação Vento Pressão Humidade
00:00 0°C° 0 mm 4 m/s 710 mmHg 93%
01:00 0°C° 0 mm 4 m/s 710 mmHg 92%
02:00 0°C° 0 mm 4 m/s 711 mmHg 91%
03:00 0°C° 0 mm 5 m/s 711 mmHg 91%
04:00 0°C° 0 mm 5 m/s 711 mmHg 90%
05:00 0°C° 0 mm 5 m/s 711 mmHg 89%
06:00 0°C° 0 mm 5 m/s 712 mmHg 87%
07:00 +1°C° 0 mm 5 m/s 712 mmHg 84%
08:00 +2°C° 0 mm 6 m/s 713 mmHg 82%
09:00 +3°C° 0 mm 6 m/s 713 mmHg 77%
10:00 +4°C° 0 mm 6 m/s 713 mmHg 73%
11:00 +7°C° 0 mm 6 m/s 713 mmHg 68%
12:00 +7°C° 0 mm 6 m/s 713 mmHg 66%
13:00 +8°C° 0 mm 7 m/s 713 mmHg 65%
14:00 +9°C° 0 mm 7 m/s 714 mmHg 63%
15:00 +9°C° 0 mm 7 m/s 714 mmHg 62%
16:00 +9°C° 0 mm 7 m/s 714 mmHg 61%
17:00 +9°C° 0 mm 7 m/s 714 mmHg 61%
18:00 +7°C° 0 mm 6 m/s 714 mmHg 65%
19:00 +5°C° 0 mm 6 m/s 714 mmHg 69%
20:00 +5°C° 0 mm 5 m/s 714 mmHg 74%
21:00 +3°C° 0 mm 5 m/s 714 mmHg 74%
22:00 +3°C° 0 mm 5 m/s 713 mmHg 75%
23:00 +2°C° 0 mm 5 m/s 713 mmHg 75%

23 Abril, Sexta-feira

Tempo Temperatura Precipitação Vento Pressão Humidade
00:00 +3°C° 0 mm 4 m/s 713 mmHg 76%
01:00 +3°C° 0 mm 4 m/s 713 mmHg 76%
02:00 +1°C° 0 mm 4 m/s 712 mmHg 77%
03:00 +1°C° 0 mm 4 m/s 712 mmHg 77%
04:00 +1°C° 0 mm 4 m/s 712 mmHg 78%
05:00 +1°C° 0 mm 4 m/s 712 mmHg 78%
06:00 +4°C° 0 mm 4 m/s 712 mmHg 73%
07:00 +5°C° 0 mm 4 m/s 712 mmHg 68%
08:00 +7°C° 0 mm 4 m/s 712 mmHg 62%
09:00 +10°C° 0 mm 4 m/s 712 mmHg 58%
10:00 +10°C° 0 mm 5 m/s 712 mmHg 54%
11:00 +13°C° 0 mm 5 m/s 712 mmHg 50%
12:00 +14°C° 0 mm 5 m/s 712 mmHg 49%
13:00 +14°C° 0 mm 5 m/s 711 mmHg 47%
14:00 +15°C° 0 mm 5 m/s 711 mmHg 46%
15:00 +14°C° 0 mm 5 m/s 711 mmHg 47%
16:00 +14°C° 0 mm 5 m/s 711 mmHg 47%
17:00 +14°C° 0 mm 5 m/s 711 mmHg 48%
18:00 +12°C° 0 mm 5 m/s 711 mmHg 51%
19:00 +9°C° 0 mm 5 m/s 711 mmHg 53%
20:00 +7°C° 0 mm 4 m/s 711 mmHg 56%
21:00 +6°C° 0 mm 4 m/s 710 mmHg 57%
22:00 +6°C° 0 mm 4 m/s 710 mmHg 57%
23:00 +5°C° 0 mm 4 m/s 710 mmHg 58%
Mostrar mais

Necessitamos do seu Consentimento

A Meteoprog e os seus Fornecedores de Serviços podem armazenar e aceder a dados pessoais como cookies, identificadores do dispositivo ou outras tecnologias semelhantes existentes no seu dispositivo e processar estes dados para personalizar conteúdos e anúncios, assim como funcionalidades nas redes sociais e análise de tráfego.

  • Armazenar e/ou aceder a informações no seu dispositivo

    Os cookies, identificadores do dispositivo ou outras informações podem ser armazenados ou acedidos no seu dispositivo, para os fins acima indicados.

  • Anúncios e conteúdos personalizados, medição de anúncios e conteúdos, dados sobre o público-alvo e desenvolvimento de produtos

    Os anúncios e os conteúdos podem ser personalizados com base num perfil. Podem ser adicionados dados adicionais para uma maior personalização dos anúncios e dos conteúdos. A eficácia dos anúncios e dos conteúdos pode ser medida. Podem ser obtidas informações sobre o público que visualizou os anúncios e os conteúdos. Estes dados podem ser usados para desenvolver ou melhorar sistemas, softwares ou a experiência do utilizador.

Ao clicar em "Eu concordo”, permitirá o uso de cookies, identificadores do dispositivo e web beacons mencionados ou outras tecnologias semelhantes. As configurações do navegador do seu dispositivo podem ser alteradas.

Para certos fins, podem ser invocados interesses legítimos ao invés de consentimento. Pode ler mais informação sobre este assunto na nossa Política de Privacidade e Cookies.